Time,TemperatureF,DewpointF,PressureIn,WindDirection,WindDirectionDegrees,WindSpeedMPH,WindSpeedGustMPH,Humidity,HourlyPrecipIn,Conditions,Clouds,dailyrainin,SoftwareType,DateUTC
2013-06-01 00:00:00,77.7,75.2,30.04,ENE,65,2.2,2.4,92,0.01,,---,0.00,VWS V13.01,2013-06-01 04:00:00,
2013-06-01 00:01:00,77.3,74.8,30.04,ENE,66,0.0,2.7,92,0.01,,---,0.00,VWS V13.01,2013-06-01 04:01:00,
2013-06-01 00:02:00,77.3,74.8,30.04,NE,56,4.8,8.0,92,0.01,,---,0.00,VWS V13.01,2013-06-01 04:02:00,
2013-06-01 00:03:00,77.4,74.9,30.04,NE,34,7.6,7.6,92,0.01,,---,0.00,VWS V13.01,2013-06-01 04:03:00,
2013-06-01 00:08:00,77.5,74.8,30.04,ENE,59,1.7,4.5,92,0.01,,---,0.00,VWS V13.01,2013-06-01 04:08:00,
2013-06-01 00:13:00,77.7,75.0,30.04,NE,56,2.5,3.4,92,0.01,,---,0.00,VWS V13.01,2013-06-01 04:13:00,
2013-06-01 00:18:00,77.8,75.2,30.04,East,80,2.2,2.5,92,0.01,,---,0.00,VWS V13.01,2013-06-01 04:18:00,
2013-06-01 00:23:00,77.7,75.1,30.04,NE,41,4.6,5.2,92,0.01,,---,0.00,VWS V13.01,2013-06-01 04:23:00,
2013-06-01 00:28:00,77.9,75.3,30.04,NNE,27,6.5,6.5,92,0.01,,---,0.00,VWS V13.01,2013-06-01 04:28:00,
2013-06-01 00:33:00,77.8,75.1,30.04,ENE,76,1.2,2.5,91,0.00,,---,0.00,VWS V13.01,2013-06-01 04:33:00,
2013-06-01 00:38:00,77.5,74.8,30.03,NE,37,3.9,5.6,91,0.00,,---,0.00,VWS V13.01,2013-06-01 04:38:00,
2013-06-01 00:43:00,77.4,74.7,30.03,NE,56,1.3,2.4,91,0.00,,---,0.00,VWS V13.01,2013-06-01 04:43:00,
2013-06-01 00:48:00,77.3,74.6,30.03,ENE,62,4.0,4.8,91,0.00,,---,0.00,VWS V13.01,2013-06-01 04:48:00,
2013-06-01 00:53:00,77.2,74.5,30.03,ENE,70,1.0,1.0,92,0.00,,---,0.00,VWS V13.01,2013-06-01 04:53:00,
2013-06-01 00:58:00,76.9,74.2,30.02,NNE,30,2.1,2.1,91,0.00,,---,0.00,VWS V13.01,2013-06-01 04:58:00,
2013-06-01 01:03:00,77.0,74.3,30.03,NNE,13,1.2,3.1,91,0.00,,---,0.00,VWS V13.01,2013-06-01 05:03:00,
2013-06-01 01:08:00,76.9,74.2,30.03,NE,52,1.0,2.7,92,0.00,,---,0.00,VWS V13.01,2013-06-01 05:08:00,
2013-06-01 01:13:00,76.7,74.1,30.02,ENE,59,3.8,4.6,92,0.00,,---,0.00,VWS V13.01,2013-06-01 05:13:00,
2013-06-01 01:18:00,76.9,74.3,30.02,ENE,63,0.0,0.0,92,0.00,,---,0.00,VWS V13.01,2013-06-01 05:18:00,
2013-06-01 01:23:00,77.0,74.4,30.02,ENE,75,1.1,1.8,92,0.00,,---,0.00,VWS V13.01,2013-06-01 05:23:00,
2013-06-01 01:28:00,76.8,74.2,30.02,NE,35,0.0,0.6,92,0.00,,---,0.00,VWS V13.01,2013-06-01 05:28:00,
2013-06-01 01:33:00,76.9,74.4,30.02,NNE,32,2.1,2.9,92,0.00,,---,0.00,VWS V13.01,2013-06-01 05:33:00,
2013-06-01 01:38:00,77.1,74.8,30.02,NNE,18,4.8,5.9,93,0.04,,---,0.05,VWS V13.01,2013-06-01 05:38:00,
2013-06-01 01:43:00,76.9,74.7,30.02,NE,42,0.9,1.6,93,0.12,,---,0.12,VWS V13.01,2013-06-01 05:43:00,
2013-06-01 01:49:00,76.9,74.7,30.02,East,96,0.0,0.0,93,0.12,,---,0.12,VWS V13.01,2013-06-01 05:49:00,
2013-06-01 01:54:00,76.8,74.6,30.01,NE,49,0.0,0.0,93,0.12,,---,0.12,VWS V13.01,2013-06-01 05:54:00,
2013-06-01 01:59:00,76.7,74.6,30.01,NE,49,0.0,0.0,93,0.12,,---,0.12,VWS V13.01,2013-06-01 05:59:00,
2013-06-01 02:04:00,76.6,74.6,30.01,NE,49,0.0,0.2,93,0.12,,---,0.12,VWS V13.01,2013-06-01 06:04:00,
2013-06-01 02:09:00,76.6,74.6,30.01,NNW,343,0.5,0.5,94,0.12,,---,0.12,VWS V13.01,2013-06-01 06:09:00,
2013-06-01 02:14:00,76.6,74.7,30.00,NNE,31,0.0,0.0,94,0.12,,---,0.12,VWS V13.01,2013-06-01 06:14:00,
2013-06-01 02:19:00,76.5,74.6,30.00,NNE,31,0.0,0.0,94,0.12,,---,0.12,VWS V13.01,2013-06-01 06:19:00,
2013-06-01 02:24:00,76.4,74.5,30.00,NNE,31,0.0,0.0,94,0.12,,---,0.12,VWS V13.01,2013-06-01 06:24:00,
2013-06-01 02:29:00,76.4,74.6,30.00,NNE,31,0.0,0.0,94,0.12,,---,0.12,VWS V13.01,2013-06-01 06:29:00,
2013-06-01 02:34:00,76.5,74.7,30.00,NNE,31,0.0,0.0,94,0.12,,---,0.12,VWS V13.01,2013-06-01 06:34:00,
2013-06-01 02:39:00,76.7,74.9,30.00,NNE,31,0.0,0.0,94,0.08,,---,0.12,VWS V13.01,2013-06-01 06:39:00,
2013-06-01 02:44:00,76.7,74.9,30.00,NNE,31,0.0,0.0,94,0.00,,---,0.12,VWS V13.01,2013-06-01 06:44:00,
2013-06-01 02:49:00,76.6,74.8,30.00,NNE,31,0.0,0.0,94,0.00,,---,0.12,VWS V13.01,2013-06-01 06:49:00,
2013-06-01 02:54:00,76.7,74.9,29.99,NNE,31,0.0,0.0,94,0.00,,---,0.12,VWS V13.01,2013-06-01 06:54:00,
2013-06-01 02:59:00,76.7,74.9,29.99,NNE,31,0.0,0.0,94,0.00,,---,0.12,VWS V13.01,2013-06-01 06:59:00,
2013-06-01 03:04:00,76.8,74.9,29.99,NNE,31,0.0,0.0,94,0.00,,---,0.12,VWS V13.01,2013-06-01 07:04:00,
2013-06-01 03:09:00,76.9,75.1,29.99,NNE,31,0.0,0.0,94,0.00,,---,0.12,VWS V13.01,2013-06-01 07:09:00,
2013-06-01 03:14:00,76.8,74.9,29.99,NNE,31,0.0,0.0,94,0.00,,---,0.12,VWS V13.01,2013-06-01 07:14:00,
2013-06-01 03:19:00,76.9,75.1,29.99,NNE,31,0.0,0.0,94,0.00,,---,0.12,VWS V13.01,2013-06-01 07:19:00,
2013-06-01 03:24:00,76.9,75.0,29.99,NNE,31,0.0,0.0,94,0.00,,---,0.12,VWS V13.01,2013-06-01 07:24:00,
2013-06-01 03:29:00,76.8,74.8,29.99,NNE,31,0.0,0.0,94,0.00,,---,0.12,VWS V13.01,2013-06-01 07:29:00,
2013-06-01 03:34:00,77.0,75.0,29.99,NNE,31,0.0,0.0,94,0.00,,---,0.12,VWS V13.01,2013-06-01 07:34:00,
2013-06-01 03:39:00,77.0,74.9,29.99,NNE,31,0.0,0.0,93,0.00,,---,0.12,VWS V13.01,2013-06-01 07:39:00,
2013-06-01 03:44:00,77.0,74.9,29.98,NNE,31,0.0,0.0,93,0.00,,---,0.12,VWS V13.01,2013-06-01 07:44:00,
2013-06-01 03:49:00,77.0,74.9,29.98,NNE,31,0.0,0.0,93,0.00,,---,0.12,VWS V13.01,2013-06-01 07:49:00,
2013-06-01 03:54:00,77.1,74.9,29.98,NNE,31,0.0,0.0,93,0.00,,---,0.12,VWS V13.01,2013-06-01 07:54:00,
2013-06-01 03:59:00,77.0,74.8,29.99,NNE,31,0.0,0.0,93,0.00,,---,0.12,VWS V13.01,2013-06-01 07:59:00,
2013-06-01 04:04:00,77.1,74.9,29.98,NNE,31,0.0,0.0,93,0.00,,---,0.12,VWS V13.01,2013-06-01 08:04:00,
2013-06-01 04:09:00,77.0,74.8,29.98,NNE,31,0.0,0.0,93,0.00,,---,0.12,VWS V13.01,2013-06-01 08:09:00,
2013-06-01 04:14:00,77.1,74.8,29.98,NNE,31,0.0,0.0,93,0.00,,---,0.12,VWS V13.01,2013-06-01 08:14:00,
2013-06-01 04:19:00,76.8,74.5,29.98,NNE,31,0.0,0.0,93,0.00,,---,0.12,VWS V13.01,2013-06-01 08:19:00,
2013-06-01 04:24:00,76.8,74.5,29.98,NNE,31,0.0,0.0,93,0.00,,---,0.12,VWS V13.01,2013-06-01 08:24:00,
2013-06-01 04:29:00,76.7,74.4,29.98,NNE,31,0.0,0.0,93,0.00,,---,0.12,VWS V13.01,2013-06-01 08:29:00,
2013-06-01 04:34:00,76.4,74.1,29.97,NNE,31,0.0,0.0,93,0.00,,---,0.12,VWS V13.01,2013-06-01 08:34:00,
2013-06-01 04:39:00,76.3,74.1,29.97,NNE,31,0.0,0.0,93,0.00,,---,0.12,VWS V13.01,2013-06-01 08:39:00,
2013-06-01 04:45:00,76.3,74.1,29.97,NNE,31,0.0,0.0,93,0.00,,---,0.12,VWS V13.01,2013-06-01 08:45:00,
2013-06-01 04:50:00,76.1,73.9,29.97,NNE,31,0.0,0.0,93,0.00,,---,0.12,VWS V13.01,2013-06-01 08:50:00,
2013-06-01 04:55:00,75.9,73.8,29.97,NNE,31,0.0,0.0,93,0.00,,---,0.12,VWS V13.01,2013-06-01 08:55:00,
2013-06-01 05:00:00,75.9,73.9,29.97,NNE,31,0.0,0.0,93,0.00,,---,0.12,VWS V13.01,2013-06-01 09:00:00,
2013-06-01 05:05:00,75.7,73.6,29.97,NNE,31,0.0,0.0,93,0.00,,---,0.12,VWS V13.01,2013-06-01 09:05:00,
2013-06-01 05:10:00,75.9,73.9,29.97,NNE,31,0.0,0.0,94,0.00,,---,0.12,VWS V13.01,2013-06-01 09:10:00,
2013-06-01 05:15:00,75.7,73.8,29.97,NNE,31,0.0,0.0,94,0.00,,---,0.12,VWS V13.01,2013-06-01 09:15:00,
2013-06-01 05:20:00,75.8,73.9,29.97,NNE,31,0.0,0.0,94,0.00,,---,0.12,VWS V13.01,2013-06-01 09:20:00,
2013-06-01 05:25:00,75.8,73.9,29.97,NNE,31,0.0,0.0,94,0.00,,---,0.12,VWS V13.01,2013-06-01 09:25:00,
2013-06-01 05:30:00,75.8,73.9,29.97,NNE,31,0.0,0.0,94,0.00,,---,0.12,VWS V13.01,2013-06-01 09:30:00,
2013-06-01 05:35:00,75.7,73.9,29.98,NNE,31,0.0,0.0,94,0.00,,---,0.12,VWS V13.01,2013-06-01 09:35:00,
2013-06-01 05:40:00,75.6,73.8,29.98,NNE,31,0.0,0.0,94,0.00,,---,0.12,VWS V13.01,2013-06-01 09:40:00,
2013-06-01 05:45:00,75.7,73.9,29.98,NNE,31,0.0,0.0,94,0.00,,---,0.12,VWS V13.01,2013-06-01 09:45:00,
2013-06-01 05:50:00,75.4,73.7,29.98,NNE,31,0.0,0.0,94,0.00,,---,0.12,VWS V13.01,2013-06-01 09:50:00,
2013-06-01 05:55:00,75.4,73.7,29.98,NNE,31,0.0,0.0,94,0.00,,---,0.12,VWS V13.01,2013-06-01 09:55:00,
2013-06-01 06:00:00,75.2,73.5,29.99,NNE,31,0.0,0.0,94,0.00,,---,0.12,VWS V13.01,2013-06-01 10:00:00,
2013-06-01 06:05:00,75.4,73.8,29.99,NNE,31,0.0,0.0,95,0.00,,---,0.12,VWS V13.01,2013-06-01 10:05:00,
2013-06-01 06:10:00,75.1,73.4,29.99,NNE,31,0.0,0.0,95,0.00,,---,0.12,VWS V13.01,2013-06-01 10:10:00,
2013-06-01 06:15:00,75.2,73.7,29.99,NNE,31,0.0,0.0,95,0.00,,---,0.12,VWS V13.01,2013-06-01 10:15:00,
2013-06-01 06:20:00,75.4,73.9,29.99,NNE,31,0.0,0.0,95,0.00,,---,0.12,VWS V13.01,2013-06-01 10:20:00,
2013-06-01 06:25:00,75.8,74.3,29.99,NNE,31,0.0,0.0,95,0.00,,---,0.12,VWS V13.01,2013-06-01 10:25:00,
2013-06-01 06:30:00,75.5,73.9,30.00,NNE,31,0.0,0.0,95,0.00,,---,0.12,VWS V13.01,2013-06-01 10:30:00,
2013-06-01 06:35:00,75.6,74.1,30.00,NNE,31,0.0,0.0,95,0.00,,---,0.12,VWS V13.01,2013-06-01 10:35:00,
2013-06-01 06:40:00,75.6,74.1,30.00,NNE,31,0.0,0.0,95,0.00,,---,0.12,VWS V13.01,2013-06-01 10:40:00,
2013-06-01 06:45:00,75.6,74.1,30.00,NNE,31,0.0,0.0,95,0.00,,---,0.12,VWS V13.01,2013-06-01 10:45:00,
2013-06-01 06:50:00,75.7,74.2,30.00,NNE,31,0.0,0.0,95,0.00,,---,0.12,VWS V13.01,2013-06-01 10:50:00,
2013-06-01 06:55:00,75.8,74.3,30.00,NNE,31,0.0,0.0,95,0.00,,---,0.12,VWS V13.01,2013-06-01 10:55:00,
2013-06-01 07:00:00,75.9,74.4,30.00,NNE,31,0.0,0.0,95,0.00,,---,0.12,VWS V13.01,2013-06-01 11:00:00,
2013-06-01 07:05:00,75.8,74.3,30.00,NNE,31,0.0,0.0,95,0.00,,---,0.12,VWS V13.01,2013-06-01 11:05:00,
2013-06-01 07:10:00,76.0,74.5,30.00,NNE,31,0.0,0.0,95,0.00,,---,0.12,VWS V13.01,2013-06-01 11:10:00,
2013-06-01 07:15:00,76.1,74.7,30.00,NNE,31,0.0,0.0,95,0.00,,---,0.12,VWS V13.01,2013-06-01 11:15:00,
2013-06-01 07:20:00,76.1,74.7,30.01,NNE,31,0.0,0.0,95,0.00,,---,0.12,VWS V13.01,2013-06-01 11:20:00,
2013-06-01 07:25:00,76.1,74.7,30.01,NNE,31,0.0,0.0,95,0.01,,---,0.13,VWS V13.01,2013-06-01 11:25:00,
2013-06-01 07:30:00,76.3,74.9,30.01,NNE,31,0.0,0.0,95,0.02,,---,0.14,VWS V13.01,2013-06-01 11:30:00,
2013-06-01 07:35:00,76.2,74.8,30.01,NNE,31,0.0,0.0,95,0.02,,---,0.14,VWS V13.01,2013-06-01 11:35:00,
2013-06-01 07:40:00,76.3,74.8,30.01,NNE,31,0.0,0.0,95,0.02,,---,0.14,VWS V13.01,2013-06-01 11:40:00,
2013-06-01 07:45:00,76.1,74.6,30.01,NNE,31,0.0,0.0,95,0.02,,---,0.14,VWS V13.01,2013-06-01 11:45:00,
2013-06-01 07:50:00,76.0,74.5,30.02,NNE,31,0.0,0.0,95,0.02,,---,0.14,VWS V13.01,2013-06-01 11:50:00,
2013-06-01 07:56:00,76.0,74.5,30.01,NNE,31,0.0,0.0,95,0.02,,---,0.14,VWS V13.01,2013-06-01 11:56:00,
2013-06-01 08:01:00,76.3,74.8,30.01,NNE,31,0.0,0.0,95,0.02,,---,0.14,VWS V13.01,2013-06-01 12:01:00,
2013-06-01 08:06:00,76.3,74.8,30.02,NNE,31,0.0,0.0,95,0.02,,---,0.14,VWS V13.01,2013-06-01 12:06:00,
2013-06-01 08:11:00,76.7,75.2,30.02,NNE,31,0.0,0.0,95,0.02,,---,0.14,VWS V13.01,2013-06-01 12:11:00,
2013-06-01 08:16:00,76.8,75.3,30.02,NNE,31,0.0,0.0,95,0.02,,---,0.14,VWS V13.01,2013-06-01 12:16:00,
2013-06-01 08:21:00,77.0,75.4,30.02,NNE,31,0.0,0.0,95,0.02,,---,0.14,VWS V13.01,2013-06-01 12:21:00,
2013-06-01 08:26:00,77.7,76.0,30.02,NNE,31,0.0,0.0,95,0.01,,---,0.14,VWS V13.01,2013-06-01 12:26:00,
2013-06-01 08:31:00,78.0,76.2,30.01,NNE,31,0.0,0.0,94,0.00,,---,0.14,VWS V13.01,2013-06-01 12:31:00,
2013-06-01 08:36:00,78.5,76.5,30.01,NNE,31,0.0,0.0,94,0.00,,---,0.14,VWS V13.01,2013-06-01 12:36:00,
2013-06-01 08:41:00,78.9,75.8,30.01,NNE,31,0.0,0.0,90,0.00,,---,0.14,VWS V13.01,2013-06-01 12:41:00,
2013-06-01 08:46:00,79.4,75.7,30.01,NNE,31,0.0,0.0,88,0.00,,---,0.14,VWS V13.01,2013-06-01 12:46:00,
2013-06-01 08:51:00,79.9,75.9,30.01,NNE,31,0.0,0.0,88,0.00,,---,0.14,VWS V13.01,2013-06-01 12:51:00,
2013-06-01 08:56:00,80.0,74.5,30.02,NNE,31,0.0,0.0,83,0.00,,---,0.14,VWS V13.01,2013-06-01 12:56:00,
2013-06-01 09:01:00,80.3,75.4,30.02,NNE,31,0.0,0.0,85,0.00,,---,0.14,VWS V13.01,2013-06-01 13:01:00,
2013-06-01 09:06:00,80.6,75.2,30.02,NNE,31,0.0,0.0,84,0.00,,---,0.14,VWS V13.01,2013-06-01 13:06:00,
2013-06-01 09:11:00,80.6,75.4,30.03,NNE,31,0.0,0.0,84,0.00,,---,0.14,VWS V13.01,2013-06-01 13:11:00,
2013-06-01 09:16:00,80.5,75.7,30.03,NNE,31,0.0,0.0,85,0.00,,---,0.14,VWS V13.01,2013-06-01 13:16:00,
2013-06-01 09:21:00,81.0,75.7,30.03,NNE,31,0.0,0.0,84,0.00,,---,0.14,VWS V13.01,2013-06-01 13:21:00,
2013-06-01 09:26:00,81.3,76.0,30.02,NNE,31,0.0,0.0,84,0.00,,---,0.14,VWS V13.01,2013-06-01 13:26:00,
2013-06-01 09:31:00,82.1,75.8,30.02,NNE,31,5.5,6.5,81,0.00,,---,0.14,VWS V13.01,2013-06-01 13:31:00,
2013-06-01 09:36:00,81.8,75.7,30.02,NE,48,5.2,6.4,82,0.00,,---,0.14,VWS V13.01,2013-06-01 13:36:00,
2013-06-01 09:41:00,82.1,76.4,30.02,ENE,77,1.9,2.2,83,0.00,,---,0.14,VWS V13.01,2013-06-01 13:41:00,
2013-06-01 09:46:00,82.4,76.0,30.03,North,11,4.0,4.8,81,0.00,,---,0.14,VWS V13.01,2013-06-01 13:46:00,
2013-06-01 09:51:00,82.3,75.8,30.03,NE,53,1.7,5.2,81,0.00,,---,0.14,VWS V13.01,2013-06-01 13:51:00,
2013-06-01 09:56:00,82.4,75.8,30.03,NE,34,6.8,7.0,81,0.00,,---,0.14,VWS V13.01,2013-06-01 13:56:00,
2013-06-01 10:01:00,82.1,75.7,30.03,NNE,24,3.0,7.8,81,0.00,,---,0.14,VWS V13.01,2013-06-01 14:01:00,
2013-06-01 10:06:00,82.5,76.1,30.03,NE,44,1.7,2.1,81,0.00,,---,0.14,VWS V13.01,2013-06-01 14:06:00,
2013-06-01 10:11:00,82.7,76.0,30.03,North,3,2.6,3.4,80,0.00,,---,0.14,VWS V13.01,2013-06-01 14:11:00,
2013-06-01 10:16:00,82.9,75.9,30.03,NE,34,2.1,2.5,80,0.00,,---,0.14,VWS V13.01,2013-06-01 14:16:00,
2013-06-01 10:21:00,82.7,76.3,30.03,East,79,3.3,3.7,81,0.00,,---,0.14,VWS V13.01,2013-06-01 14:21:00,
2013-06-01 10:26:00,82.2,76.4,30.03,NE,52,2.5,4.8,83,0.00,,---,0.14,VWS V13.01,2013-06-01 14:26:00,
2013-06-01 10:31:00,81.6,76.1,30.03,ENE,70,2.6,3.0,84,0.00,,---,0.14,VWS V13.01,2013-06-01 14:31:00,
2013-06-01 10:36:00,81.2,76.2,30.03,East,91,4.5,5.0,85,0.00,,---,0.14,VWS V13.01,2013-06-01 14:36:00,
2013-06-01 10:41:00,80.5,75.9,30.03,East,100,2.5,3.5,86,0.01,,---,0.16,VWS V13.01,2013-06-01 14:41:00,
2013-06-01 10:46:00,80.3,76.1,30.04,ENE,60,0.0,0.6,87,0.03,,---,0.17,VWS V13.01,2013-06-01 14:46:00,
2013-06-01 10:51:00,79.8,75.9,30.03,East,94,3.2,3.2,88,0.05,,---,0.19,VWS V13.01,2013-06-01 14:51:00,
2013-06-01 10:56:00,79.2,75.6,30.03,East,101,1.6,3.2,89,0.06,,---,0.20,VWS V13.01,2013-06-01 14:56:00,
2013-06-01 11:02:00,79.1,75.7,30.03,SSE,155,4.0,5.1,89,0.06,,---,0.20,VWS V13.01,2013-06-01 15:02:00,
2013-06-01 11:07:00,78.9,75.7,30.03,SSE,156,0.0,0.0,90,0.08,,---,0.22,VWS V13.01,2013-06-01 15:07:00,
2013-06-01 11:12:00,78.8,75.9,30.03,East,93,0.0,0.0,91,0.09,,---,0.23,VWS V13.01,2013-06-01 15:12:00,
2013-06-01 11:17:00,78.7,75.9,30.03,ESE,108,1.1,3.3,91,0.10,,---,0.24,VWS V13.01,2013-06-01 15:17:00,
2013-06-01 11:22:00,78.4,75.7,30.03,ESE,103,0.0,0.0,91,0.10,,---,0.24,VWS V13.01,2013-06-01 15:22:00,
2013-06-01 11:27:00,78.7,76.1,30.03,ESE,108,0.0,1.4,92,0.10,,---,0.24,VWS V13.01,2013-06-01 15:27:00,
2013-06-01 11:32:00,78.8,76.2,30.03,East,94,0.4,1.5,92,0.10,,---,0.24,VWS V13.01,2013-06-01 15:32:00,
2013-06-01 11:37:00,78.9,76.2,30.03,SE,127,0.0,0.0,92,0.10,,---,0.24,VWS V13.01,2013-06-01 15:37:00,
2013-06-01 11:42:00,78.9,76.3,30.03,ENE,62,0.9,2.2,92,0.09,,---,0.24,VWS V13.01,2013-06-01 15:42:00,
2013-06-01 11:47:00,79.1,76.4,30.03,NE,37,1.1,2.0,92,0.07,,---,0.24,VWS V13.01,2013-06-01 15:47:00,
2013-06-01 11:52:00,79.1,76.2,30.03,NE,56,0.8,4.5,91,0.05,,---,0.24,VWS V13.01,2013-06-01 15:52:00,
2013-06-01 11:57:00,79.4,76.5,30.03,ESE,118,1.9,2.4,91,0.04,,---,0.24,VWS V13.01,2013-06-01 15:57:00,
2013-06-01 12:02:00,79.5,76.6,30.03,NNW,347,0.0,2.1,91,0.04,,---,0.24,VWS V13.01,2013-06-01 16:02:00,
2013-06-01 12:07:00,80.0,76.8,30.03,East,97,0.0,1.6,90,0.02,,---,0.24,VWS V13.01,2013-06-01 16:07:00,
2013-06-01 12:12:00,80.0,76.5,30.02,ESE,104,1.6,5.8,89,0.01,,---,0.24,VWS V13.01,2013-06-01 16:12:00,
2013-06-01 12:17:00,80.2,76.5,30.03,ENE,75,2.7,3.0,88,0.00,,---,0.24,VWS V13.01,2013-06-01 16:17:00,
2013-06-01 12:22:00,80.1,75.8,30.02,East,79,7.3,7.8,87,0.00,,---,0.24,VWS V13.01,2013-06-01 16:22:00,
2013-06-01 12:27:00,80.2,75.8,30.02,ENE,70,2.2,3.1,86,0.00,,---,0.24,VWS V13.01,2013-06-01 16:27:00,
2013-06-01 12:32:00,80.5,75.7,30.02,ENE,65,3.5,10.5,85,0.00,,---,0.24,VWS V13.01,2013-06-01 16:32:00,
2013-06-01 12:37:00,80.9,76.4,30.02,East,90,3.1,5.8,86,0.00,,---,0.24,VWS V13.01,2013-06-01 16:37:00,
2013-06-01 12:42:00,81.4,76.6,30.02,ENE,59,2.1,4.7,86,0.00,,---,0.24,VWS V13.01,2013-06-01 16:42:00,
2013-06-01 12:47:00,81.7,76.9,30.02,ESE,115,5.7,5.7,85,0.00,,---,0.24,VWS V13.01,2013-06-01 16:47:00,
2013-06-01 12:52:00,82.1,76.7,30.02,NE,42,0.5,3.0,84,0.00,,---,0.24,VWS V13.01,2013-06-01 16:52:00,
2013-06-01 12:57:00,82.0,76.3,30.02,SSE,158,2.7,5.2,83,0.00,,---,0.24,VWS V13.01,2013-06-01 16:57:00,
2013-06-01 13:02:00,81.7,75.6,30.02,NW,323,1.6,10.2,82,0.00,,---,0.24,VWS V13.01,2013-06-01 17:02:00,
2013-06-01 13:07:00,81.9,76.1,30.01,East,79,7.3,7.4,83,0.00,,---,0.24,VWS V13.01,2013-06-01 17:07:00,
2013-06-01 13:12:00,81.5,75.8,30.01,East,97,2.9,7.1,83,0.00,,---,0.24,VWS V13.01,2013-06-01 17:12:00,
2013-06-01 13:17:00,81.5,75.3,30.01,East,80,5.7,8.5,82,0.00,,---,0.24,VWS V13.01,2013-06-01 17:17:00,
2013-06-01 13:22:00,81.8,75.7,30.00,NE,45,8.3,8.3,82,0.00,,---,0.24,VWS V13.01,2013-06-01 17:22:00,
2013-06-01 13:27:00,82.5,76.1,30.01,ESE,114,8.0,8.0,81,0.00,,---,0.24,VWS V13.01,2013-06-01 17:27:00,
2013-06-01 13:32:00,82.7,76.1,30.01,East,96,2.2,7.1,80,0.00,,---,0.24,VWS V13.01,2013-06-01 17:32:00,
2013-06-01 13:37:00,82.5,76.1,30.01,East,79,3.7,3.7,81,0.00,,---,0.24,VWS V13.01,2013-06-01 17:37:00,
2013-06-01 13:42:00,82.6,76.3,30.01,ENE,58,1.6,4.7,81,0.00,,---,0.24,VWS V13.01,2013-06-01 17:42:00,
2013-06-01 13:47:00,82.8,76.4,30.01,NE,52,2.0,3.4,81,0.00,,---,0.24,VWS V13.01,2013-06-01 17:47:00,
2013-06-01 13:52:00,82.9,75.3,30.00,NNE,28,3.9,10.0,78,0.00,,---,0.24,VWS V13.01,2013-06-01 17:52:00,
2013-06-01 13:57:00,83.8,76.4,30.00,East,90,6.2,6.2,78,0.00,,---,0.24,VWS V13.01,2013-06-01 17:57:00,
2013-06-01 14:03:00,83.5,74.8,30.00,East,79,10.1,13.5,75,0.00,,---,0.24,VWS V13.01,2013-06-01 18:03:00,
2013-06-01 14:08:00,83.5,76.0,30.00,East,79,9.3,9.6,78,0.00,,---,0.24,VWS V13.01,2013-06-01 18:08:00,
2013-06-01 14:13:00,82.4,75.7,29.99,East,79,7.0,10.7,80,0.00,,---,0.24,VWS V13.01,2013-06-01 18:13:00,
2013-06-01 14:18:00,82.5,75.6,29.99,ESE,110,5.2,9.1,80,0.00,,---,0.24,VWS V13.01,2013-06-01 18:18:00,
2013-06-01 14:23:00,82.0,75.0,29.99,SE,131,3.2,11.9,79,0.00,,---,0.24,VWS V13.01,2013-06-01 18:23:00,
2013-06-01 14:28:00,81.7,74.3,29.99,South,191,4.0,10.9,78,0.00,,---,0.24,VWS V13.01,2013-06-01 18:28:00,
2013-06-01 14:33:00,81.6,74.7,29.99,East,79,2.4,3.3,80,0.00,,---,0.24,VWS V13.01,2013-06-01 18:33:00,
2013-06-01 14:38:00,81.4,74.2,29.99,NE,49,3.5,9.3,79,0.00,,---,0.24,VWS V13.01,2013-06-01 18:38:00,
2013-06-01 14:43:00,81.4,73.8,30.00,ESE,110,4.7,6.5,78,0.00,,---,0.24,VWS V13.01,2013-06-01 18:43:00,
2013-06-01 14:48:00,81.2,73.7,30.00,NE,41,5.2,12.2,78,0.00,,---,0.24,VWS V13.01,2013-06-01 18:48:00,
2013-06-01 14:53:00,81.0,73.6,29.99,East,97,6.3,10.0,78,0.00,,---,0.24,VWS V13.01,2013-06-01 18:53:00,
2013-06-01 14:58:00,80.7,73.4,29.99,SE,124,5.7,8.0,78,0.00,,---,0.24,VWS V13.01,2013-06-01 18:58:00,
2013-06-01 15:03:00,80.3,73.2,29.99,East,96,8.0,9.6,79,0.00,,---,0.24,VWS V13.01,2013-06-01 19:03:00,
2013-06-01 15:08:00,80.5,73.9,29.99,NE,45,1.4,3.8,80,0.00,,---,0.24,VWS V13.01,2013-06-01 19:08:00,
2013-06-01 15:13:00,80.4,74.4,30.00,NE,48,4.6,4.8,82,0.00,,---,0.24,VWS V13.01,2013-06-01 19:13:00,
2013-06-01 15:18:00,80.4,74.4,30.00,East,83,3.0,7.2,82,0.00,,---,0.24,VWS V13.01,2013-06-01 19:18:00,
2013-06-01 15:23:00,80.3,74.3,29.99,East,100,1.9,3.9,82,0.00,,---,0.24,VWS V13.01,2013-06-01 19:23:00,
2013-06-01 15:28:00,80.0,74.0,29.99,NNW,328,2.4,5.8,82,0.00,,---,0.24,VWS V13.01,2013-06-01 19:28:00,
2013-06-01 15:33:00,80.1,74.4,29.98,ENE,58,1.3,5.2,83,0.00,,---,0.24,VWS V13.01,2013-06-01 19:33:00,
2013-06-01 15:38:00,79.8,74.5,29.98,East,79,3.0,4.4,84,0.00,,---,0.24,VWS V13.01,2013-06-01 19:38:00,